Weather Roundup
Issued by NWS Springfield, MO

Home | Current Version | Previous Version | Text Only | Print | Product List | Glossary On
Versions: 1 2 3 4 5 6 7 8 9 10 11 12 13 14 15 16 17 18 19 20 21 22 23 24 25 26 27 28 29 30 31 32 33 34 35 36 37 38 39 40 41 42 43 44 45 46 47 48 49 50
000
NZUS99 KSGF 311859
HRRSGF

HOURLY WEATHER
NATIONAL WEATHER SERVICE SPRINGFIELD MO
100 PM CST SAT JAN 31 2015

......SGF CWA......

CITY           SKY/WX    TMP DP  RH WIND       PRES   REMARKS
SPRINGFIELD    CLOUDY    44  16  32 SE21      30.15F
JOPLIN         CLOUDY    47  18  31 S7        30.16F
WEST PLAINS    CLOUDY    43  19  38 S8        30.24F
ROLLA          LGT RAIN  40  27  59 S10       30.23F WCI  33
OSAGE BEACH    CLOUDY    39  30  70 SE8       30.23F WCI  34
BRANSON        CLOUDY    45  19  36 E10       30.19F

......SURROUNDING SGF CWA......

CITY           SKY/WX    TMP DP  RH WIND       PRES   REMARKS
CHANUTE        LGT RAIN  40  34  79 S9        30.15F WCI  34
PARSONS        LGT RAIN  43  34  70 S5        30.16F
COFFEYVILLE    LGT RAIN  42  34  73 S5        30.16F
EMPORIA        LGT RAIN  36  36 100 S13       30.09F FOG     WCI  27
SILOAM SPRINGS CLOUDY   N/A N/A N/A S12       30.17F
HARRISON AR    CLOUDY    46  22  38 SE15      30.18F
NEAR YELLVILLE CLOUDY    46  21  36 SE6       30.23F

......KANSAS AND MISSOURI......

CITY           SKY/WX    TMP DP  RH WIND       PRES   REMARKS
KANSAS CTY INT LGT RAIN  39  38  96 S12       30.15F WCI  32
DOWNTOWN KC    LGT RAIN  40  37  89 S12       30.17F WCI  33
COLUMBIA       CLOUDY    39  29  67 S6        30.23F WCI  35
SEDALIA        LGT RAIN  39  36  89 E6        30.21F FOG     WCI  35
ST JOSEPH      LGT RAIN  38  36  92 S9        30.16F FOG     WCI  31
ST LOUIS       CLOUDY    45  23  42 SW5       30.27F
SPIRIT OF STL  CLOUDY    43  24  47 CALM      30.25F
KIRKSVILLE     LGT RAIN  36  36 100 S7        30.20F FOG     WCI  30
WICHITA        LGT RAIN  40  38  93 S14       30.04F FOG     WCI  32
TOPEKA         LGT RAIN  37  35  92 S6        30.15F FOG     WCI  32
OLATHE         LGT RAIN  39  36  89 S15G25    30.14F FOG     WCI  31

......TENNESSEE......

CITY           SKY/WX    TMP DP  RH WIND       PRES   REMARKS
MEMPHIS        CLOUDY    45  23  42 E5        30.29F
NASHVILLE      CLOUDY    44  22  41 E5        30.34F

......ARKANSAS.......

CITY           SKY/WX    TMP DP  RH WIND       PRES   REMARKS
FAYETTEVILLE   CLOUDY    46  25  43 S13       30.16F
FT SMITH       CLOUDY    53  26  35 SE12G20   30.19F
LITTLE ROCK    CLOUDY    46  27  47 E6        30.28F

......OKLAHOMA.......

CITY           SKY/WX    TMP DP  RH WIND       PRES   REMARKS
TULSA          LGT RAIN  44  34  67 S12       30.15F
PONCA CITY     LGT RAIN  41  38  89 SE14      30.08F FOG
MCALESTER      CLOUDY    50  29  44 S8        30.15F
OKLAHOMA CITY  LGT RAIN  43  37  79 S17       30.05F

......IOWA............

CITY           SKY/WX    TMP DP  RH WIND       PRES   REMARKS
DES MOINES     LGT RAIN  39  35  86 SW12      30.15F WCI  32
QUAD CITIES    CLOUDY    37  29  72 SW9       30.18F WCI  30

......ILLINOIS........

CITY           SKY/WX    TMP DP  RH WIND       PRES   REMARKS
QUINCY         LGT RAIN  35  29  78 S7        30.23F WCI  29
CHICAGO        CLOUDY    35  23  61 W10       30.16F WCI  27




USA.gov is the U.S. government's official web portal to all federal, state and local government web resources and services.